Regional Weather Roundup
Issued by NWS

Home | Current Version | Previous Version | Text Only | Print | Product List | Glossary Off
Versions: 1 2 3 4 5 6 7 8 9 10 11 12 13 14 15 16 17 18 19 20 21 22 23 24 25 26 27 28 29 30 31 32 33 34 35 36 37 38 39 40 41 42 43 44 45 46 47 48 49 50

000
ASUS43 KMKX 261521
RWRWI

WISCONSIN REGIONAL WEATHER ROUNDUP
NATIONAL WEATHER SERVICE MILWAUKEE/SULLIVAN WI
1000 AM CDT MON JUN 26 2017

NOTE: "FAIR" INDICATES FEW OR NO CLOUDS BELOW 12,000 FEET WITH NO
SIGNIFICANT WEATHER AND/OR OBSTRUCTIONS TO VISIBILITY.

WIZ001-002-006>008-014>016-023>028-261600-
NORTHWEST WISCONSIN

CITY           SKY/WX    TMP DP  RH WIND       PRES   REMARKS
SUPERIOR ARPT  NOT AVBL
ASHLAND        MOSUNNY   57  47  69 VRB6      30.13S
HAYWARD        PTSUNNY   54  46  74 VRB3      30.14R
SIREN          MOSUNNY   60  45  59 N10G17    30.16R
CUMBERLAND     MOSUNNY   55  45  67 NW12      30.15S
RICE LAKE      SUNNY     58  45  62 NW12G17   30.16S
CHETEK         MOSUNNY   58  47  66 NW6G18    30.15S
LADYSMITH      PTSUNNY   55  46  71 NW8G17    30.15R
EAU CLAIRE     SUNNY     59  46  62 NW14      30.13F
MENOMONIE      SUNNY     60  46  60 NW15      30.15F
NEW RICHMOND   SUNNY     60  43  54 N12       30.17S
OSCEOLA        MOSUNNY   61  46  58 NW9       30.20S
$$

WIZ003>005-009-010-017-018-261600-
NORTH CENTRAL WISCONSIN

CITY           SKY/WX    TMP DP  RH WIND       PRES   REMARKS
MANITOWISH WTR RAIN      47  47 100 NW10      30.07R
ARBOR VITAE    DRIZZLE   49  47  93 N12G20    30.06R
WOODRUFF       DRIZZLE   49  47  93 N12G20    30.06R
RHINELANDER    CLOUDY    50  47  89 VRB5G17   30.06R
EAGLE RIVER    RAIN      48  47  94 NW8G16    30.04R
LAND O LAKES   LGT RAIN  49  47  93 N14G20    30.06R
PHILLIPS       DRIZZLE   48  47  93 NW9       30.10R
TOMAHAWK       NOT AVBL
MEDFORD        CLOUDY    51  45  80 NW15G21   30.10S
MERRILL        CLOUDY    50  46  84 NW10G18   30.08R
$$

WIZ029-030-035-036-043>047-261600-
CENTRAL WISCONSIN

CITY           SKY/WX    TMP DP  RH WIND       PRES   REMARKS
WAUSAU         CLOUDY    51  43  74 NW14G24   30.06S
MOSINEE        CLOUDY    52  45  76 NW13      30.08F
MARSHFIELD     LGT RAIN  50  44  80 N16G24    30.10R
STEVENS POINT  DRIZZLE   51  42  71 NW12G18   30.08S
WAUPACA        PTSUNNY   58  44  59 NW15G22   30.07F
WAUTOMA        CLOUDY    56  44  64 NW18G24   30.09S
WISC RAPIDS    CLOUDY    56  44  64 NW14G25   30.10S
CAMP DOUGLAS   PTSUNNY   57  46  67 NW15G21   30.12S
$$

WIZ011>013-019>022-031-037>040-048>050-261600-
NORTHEAST WISCONSIN

CITY           SKY/WX    TMP DP  RH WIND       PRES   REMARKS
ANTIGO         CLOUDY    48  44  87 NW13G18   30.05S
SHAWANO        CLOUDY    54  45  72 W10       30.04S
OCONTO         CLOUDY    55  45  69 NW5       30.01S
STURGEON BAY     N/A     54  46  74 W13         N/A
GREEN BAY      CLOUDY    55  45  68 W17       30.04S
MANITOWOC      PTSUNNY   57  45  62 W17G24    30.03S
APPLETON       PTSUNNY   55  43  62 W16G22    30.04S
CLINTONVILLE   CLOUDY    54  41  62 NW17      30.05R
OSHKOSH        PTSUNNY   55  44  66 NW16G24   30.06R
$$

WIZ032>034-041-042-053>061-261600-
SOUTHWEST WISCONSIN

CITY           SKY/WX    TMP DP  RH WIND       PRES   REMARKS
LA CROSSE      SUNNY     65  46  50 NW8       30.15S
SPARTA         PTSUNNY   58  44  60 NW13G21   30.15S
VIROQUA        PTSUNNY   58  48  69 NW10G18   30.15S
BOSCOBEL       MOSUNNY   64  47  53 W13       30.15R
PRAIRIE DU CHI SUNNY     63  44  51 NW8       30.15S
PLATTEVILLE    SUNNY     63  48  57 NW9       30.14F
$$

WIZ056-057-062-063-064-067-068-261600-
SOUTH CENTRAL WISCONSIN

CITY           SKY/WX    TMP DP  RH WIND       PRES   REMARKS
REEDSBURG      SUNNY     58  44  59 NW13G20   30.12S
BARABOO/DELLS  MOSUNNY   58  44  57 NW12G20   30.11F
LONE ROCK      MOSUNNY   62  47  57 W9        30.13F
MINERAL POINT  SUNNY     61  46  59 W8        30.14R
MADISON        MOSUNNY   60  48  64 NW10      30.10F
MIDDLETON      MOSUNNY   61  49  63 NW10G16   30.12F
WATERTOWN      NOT AVBL
MONROE         SUNNY     63  43  48 NW8       30.12S
JANESVILLE     MOSUNNY   64  46  52 W10G16    30.10F
$$

WIZ051-052-058>065-066-070>072-261600-
SOUTHEAST WISCONSIN

CITY           SKY/WX    TMP DP  RH WIND       PRES   REMARKS
MILWAUKEE      MOSUNNY   65  46  50 NW12G22   30.07F
WAUKESHA       MOSUNNY   57  46  67 W14       30.10F
MILWAUKEE/TIMM MOSUNNY   61  45  55 W12G21    30.08S
RACINE         SUNNY     64  47  53 VRB7      30.09F
KENOSHA        SUNNY     65  49  56 W13       30.08F
FOND DU LAC    MOSUNNY   60  44  55 W17G24    30.06F
SHEBOYGAN      MOSUNNY   59  49  69 W15G22    30.04F
WEST BEND      MOSUNNY   59  45  58 W13G23    30.06F
JUNEAU         SUNNY     58  44  60 W8        30.09S
$$

LSZ147-162-261600-
LAKE SUPERIOR

STATION/POSITION TIME  TEMP    WIND        PRES    WAVE
                       AIR SEA DIR/SP/G            HT/PER
                 (UTC) (F)     (DEG/KT/KT) (MB)    (FT/S)
W MID LAKE BUOY  1450   44 39  270/ 12/ 14 1018.7R   1/ 3
DEVILS ISLAND    1500   51     240/ 13/ 15 1019.7R
SAXON HARBOR     1430   53      40/  3/  5 1019.3S
$$

LMZ867-665-643>646-261600-
LAKE MICHIGAN

STATION/POSITION TIME  TEMP    WIND        PRES    WAVE
                       AIR SEA DIR/SP/G            HT/PER
                 (UTC) (F)     (DEG/KT/KT) (MB)    (FT/S)
CHAMBERS ISLAND  1440   56     270/  5/ 11 1014.9S
S GREEN BAY BUOY 1500   56     270/ 14/ 17 1015.6
N MID LAKE BUOY  1450   53 55  340/  6/  6 1015.2R   2/ 4
NORTHPORT PIER   1440   56     310/  7/ 14 1014.9S
KEWAUNEE LAKESHO 1454   55     290/ 10/ 17 1015.9S
SHEBOYGAN LAKESH 1500   57     290/ 13/ 17 1017.1F
PORT WASHINGTON  1430   62     280/  8/ 17 1018.3F
ATWATER BUOY     1409   59 57  270/ 12/ 16 1018.2F
MILWAUKEE LAKESH 1500   61     290/  9/ 13   N/A
S MID LAKE BUOY  1450   60 61  300/ 12/ 14 1018.4F   3/ 4
KENOSHA   LAKESH 1500   63     270/  8/ 15 1018.3
$$

TC  - TEMPERATURE IN CELSIUS
VSB - VISIBILITY IN STATUTE MILES
WCI - WIND CHILL INDEX
HX  - HEAT INDEX





USA.gov is the U.S. government's official web portal to all federal, state and local government web resources and services.